Hourly Weather Klamy

Today, 25 July, Sunday

Time Temperature Precipitation Wind Pressure Humidity
00:00 +20°C° 0.1 mm 3 mps 750 mmHg 71%
01:00 +20°C° 0 mm 3 mps 750 mmHg 74%
02:00 +20°C° 0 mm 3 mps 750 mmHg 75%
03:00 +19°C° 0 mm 3 mps 750 mmHg 77%
04:00 +19°C° 0 mm 3 mps 750 mmHg 78%
05:00 +20°C° 0 mm 3 mps 750 mmHg 74%
06:00 +21°C° 0 mm 3 mps 750 mmHg 70%
07:00 +22°C° 0 mm 4 mps 750 mmHg 65%
08:00 +23°C° 0 mm 4 mps 750 mmHg 62%
09:00 +26°C° 0 mm 4 mps 750 mmHg 59%
10:00 +27°C° 0 mm 4 mps 750 mmHg 55%
11:00 +28°C° 0 mm 4 mps 750 mmHg 49%
12:00 +30°C° 0 mm 4 mps 750 mmHg 42%
13:00 +32°C° 0 mm 4 mps 750 mmHg 35%
14:00 +30°C° 0 mm 4 mps 750 mmHg 39%
15:00 +29°C° 0 mm 4 mps 750 mmHg 44%
16:00 +27°C° 0 mm 3 mps 750 mmHg 48%
17:00 +26°C° 0 mm 3 mps 750 mmHg 54%
18:00 +25°C° 0 mm 2 mps 750 mmHg 60%
19:00 +24°C° 0 mm 1 mps 750 mmHg 66%
20:00 +24°C° 0 mm 2 mps 750 mmHg 65%
21:00 +24°C° 0 mm 3 mps 750 mmHg 65%
22:00 +22°C° 0 mm 3 mps 749 mmHg 64%
23:00 +22°C° 0 mm 4 mps 749 mmHg 66%

Tomorrow, 26 July, Monday

Time Temperature Precipitation Wind Pressure Humidity
00:00 +22°C° 0 mm 4 mps 749 mmHg 68%
01:00 +21°C° 0 mm 4 mps 749 mmHg 70%
02:00 +21°C° 0 mm 4 mps 749 mmHg 73%
03:00 +21°C° 0 mm 4 mps 748 mmHg 75%
04:00 +20°C° 0 mm 4 mps 748 mmHg 78%
05:00 +21°C° 0 mm 4 mps 748 mmHg 74%
06:00 +22°C° 0 mm 4 mps 748 mmHg 71%
07:00 +23°C° 0 mm 5 mps 749 mmHg 68%
08:00 +25°C° 0 mm 5 mps 749 mmHg 64%
09:00 +27°C° 0 mm 4 mps 749 mmHg 60%
10:00 +28°C° 0 mm 4 mps 749 mmHg 56%
11:00 +29°C° 0 mm 4 mps 749 mmHg 53%
12:00 +30°C° 0 mm 4 mps 748 mmHg 51%
13:00 +31°C° 0 mm 3 mps 748 mmHg 49%
14:00 +30°C° 0.2 mm 3 mps 748 mmHg 53%
15:00 +29°C° 0.2 mm 3 mps 748 mmHg 57%
16:00 +28°C° 0.2 mm 2 mps 748 mmHg 61%
17:00 +26°C° 2.3 mm 2 mps 748 mmHg 72%
18:00 +24°C° 2.3 mm 3 mps 747 mmHg 83%
19:00 +21°C° 2.3 mm 3 mps 747 mmHg 94%
20:00 +21°C° 0.8 mm 2 mps 748 mmHg 95%
21:00 +20°C° 0.8 mm 2 mps 748 mmHg 96%
22:00 +20°C° 0.8 mm 2 mps 748 mmHg 96%
23:00 +20°C° 0 mm 2 mps 748 mmHg 96%

Day after tomorrow, 27 July, Tuesday

Time Temperature Precipitation Wind Pressure Humidity
00:00 +19°C° 0 mm 2 mps 748 mmHg 95%
01:00 +19°C° 0 mm 2 mps 748 mmHg 95%
02:00 +19°C° 0 mm 2 mps 748 mmHg 94%
03:00 +19°C° 0 mm 2 mps 748 mmHg 93%
04:00 +19°C° 0 mm 2 mps 748 mmHg 92%
05:00 +20°C° 0 mm 2 mps 748 mmHg 89%
06:00 +21°C° 0 mm 3 mps 748 mmHg 87%
07:00 +22°C° 0 mm 3 mps 748 mmHg 84%
08:00 +24°C° 0.2 mm 3 mps 749 mmHg 81%
09:00 +24°C° 0.2 mm 3 mps 749 mmHg 77%
10:00 +25°C° 0.2 mm 3 mps 749 mmHg 74%
11:00 +26°C° 0.1 mm 3 mps 749 mmHg 69%
12:00 +27°C° 0.1 mm 3 mps 749 mmHg 64%
13:00 +28°C° 0.1 mm 3 mps 749 mmHg 59%
14:00 +29°C° 0 mm 3 mps 749 mmHg 57%
15:00 +29°C° 0 mm 3 mps 749 mmHg 54%
16:00 +30°C° 0 mm 3 mps 749 mmHg 52%
17:00 +28°C° 0.1 mm 3 mps 749 mmHg 59%
18:00 +27°C° 0.1 mm 3 mps 749 mmHg 66%
19:00 +25°C° 0.1 mm 3 mps 749 mmHg 74%
20:00 +24°C° 0.1 mm 2 mps 749 mmHg 75%
21:00 +23°C° 0.1 mm 2 mps 749 mmHg 77%
22:00 +21°C° 0.1 mm 2 mps 750 mmHg 78%
23:00 +21°C° 0 mm 2 mps 750 mmHg 79%

28 July, Wednesday

Time Temperature Precipitation Wind Pressure Humidity
00:00 +21°C° 0 mm 2 mps 750 mmHg 79%
01:00 +20°C° 0 mm 2 mps 750 mmHg 80%
02:00 +20°C° 0 mm 2 mps 750 mmHg 80%
03:00 +20°C° 0 mm 2 mps 750 mmHg 80%
04:00 +20°C° 0 mm 2 mps 750 mmHg 80%
05:00 +23°C° 0 mm 2 mps 750 mmHg 75%
06:00 +24°C° 0 mm 2 mps 750 mmHg 71%
07:00 +25°C° 0 mm 3 mps 750 mmHg 66%
08:00 +27°C° 0 mm 3 mps 750 mmHg 60%
09:00 +28°C° 0 mm 3 mps 750 mmHg 54%
10:00 +30°C° 0 mm 3 mps 750 mmHg 48%
11:00 +30°C° 0 mm 2 mps 750 mmHg 46%
12:00 +31°C° 0 mm 2 mps 749 mmHg 44%
13:00 +31°C° 0 mm 2 mps 749 mmHg 41%
14:00 +31°C° 0 mm 2 mps 749 mmHg 43%
15:00 +30°C° 0 mm 2 mps 749 mmHg 45%
16:00 +30°C° 0 mm 3 mps 749 mmHg 47%
17:00 +29°C° 0 mm 3 mps 749 mmHg 53%
18:00 +27°C° 0 mm 3 mps 749 mmHg 59%
19:00 +26°C° 0 mm 3 mps 749 mmHg 65%
20:00 +24°C° 0.2 mm 3 mps 749 mmHg 71%
21:00 +22°C° 0.2 mm 3 mps 749 mmHg 77%
22:00 +20°C° 0.2 mm 3 mps 750 mmHg 84%
23:00 +20°C° 0.3 mm 3 mps 750 mmHg 86%

29 July, Thursday

Time Temperature Precipitation Wind Pressure Humidity
00:00 +19°C° 0.3 mm 4 mps 750 mmHg 89%
01:00 +19°C° 0.3 mm 4 mps 750 mmHg 92%
02:00 +19°C° 0.2 mm 3 mps 750 mmHg 92%
03:00 +19°C° 0.2 mm 3 mps 750 mmHg 93%
04:00 +19°C° 0.2 mm 2 mps 750 mmHg 94%
05:00 +19°C° 0 mm 3 mps 751 mmHg 92%
06:00 +19°C° 0 mm 3 mps 751 mmHg 90%
07:00 +20°C° 0 mm 3 mps 751 mmHg 87%
08:00 +21°C° 0 mm 3 mps 751 mmHg 80%
09:00 +22°C° 0 mm 3 mps 751 mmHg 73%
10:00 +24°C° 0 mm 3 mps 751 mmHg 66%
11:00 +26°C° 0 mm 3 mps 751 mmHg 60%
12:00 +27°C° 0 mm 2 mps 751 mmHg 55%
13:00 +28°C° 0 mm 2 mps 751 mmHg 49%
14:00 +28°C° 0 mm 2 mps 750 mmHg 49%
15:00 +28°C° 0 mm 2 mps 750 mmHg 49%
16:00 +28°C° 0 mm 1 mps 750 mmHg 48%
17:00 +27°C° 0 mm 1 mps 750 mmHg 52%
18:00 +26°C° 0 mm 1 mps 750 mmHg 55%
19:00 +25°C° 0 mm 1 mps 749 mmHg 59%
20:00 +24°C° 0 mm 1 mps 749 mmHg 60%
21:00 +24°C° 0 mm 1 mps 750 mmHg 61%
22:00 +23°C° 0 mm 2 mps 750 mmHg 62%
23:00 +21°C° 0 mm 2 mps 749 mmHg 66%

30 July, Friday

Time Temperature Precipitation Wind Pressure Humidity
00:00 +21°C° 0 mm 2 mps 749 mmHg 70%
01:00 +20°C° 0 mm 3 mps 749 mmHg 74%
02:00 +20°C° 0 mm 2 mps 749 mmHg 77%
03:00 +19°C° 0 mm 2 mps 749 mmHg 79%
04:00 +19°C° 0 mm 2 mps 749 mmHg 81%
05:00 +21°C° 0 mm 3 mps 749 mmHg 75%
06:00 +22°C° 0 mm 3 mps 749 mmHg 69%
07:00 +25°C° 0 mm 3 mps 749 mmHg 63%
08:00 +27°C° 0 mm 4 mps 748 mmHg 57%
09:00 +28°C° 0 mm 4 mps 748 mmHg 50%
10:00 +30°C° 0 mm 4 mps 747 mmHg 44%
11:00 +32°C° 0 mm 5 mps 747 mmHg 42%
12:00 +33°C° 0 mm 5 mps 747 mmHg 40%
13:00 +34°C° 0 mm 5 mps 746 mmHg 38%
14:00 +34°C° 0 mm 5 mps 746 mmHg 39%
15:00 +34°C° 0 mm 4 mps 745 mmHg 41%
16:00 +33°C° 0 mm 4 mps 745 mmHg 42%
17:00 +32°C° 0 mm 4 mps 745 mmHg 49%
18:00 +29°C° 0 mm 4 mps 745 mmHg 55%
19:00 +27°C° 0 mm 3 mps 744 mmHg 62%
20:00 +26°C° 1.6 mm 3 mps 745 mmHg 72%
21:00 +24°C° 1.6 mm 3 mps 745 mmHg 82%
22:00 +21°C° 1.6 mm 2 mps 746 mmHg 92%
23:00 +21°C° 0.5 mm 2 mps 746 mmHg 93%
Show more